User: anonymous   Login
Location: Unspecified
(0.0000°N, 0.0000°E)
Time: 03:41:06
(UTC+02:00)
Language:

H-2A R/B - Orbit

View from above orbital plane
View from above orbital plane
View from above satellite
View from above satellite

Ground track
Ground track

The orbit data is extracted from the following two-line orbital elements,

1 28932U 06002B   15146.53951875  .00000721  00000-0  76089-4 0  9996
2 28932 098.2568 027.4985 0091270 254.3825 167.1157 14.89879755505671
Epoch (UTC): 26 May 2015 12:56:54
Eccentricity: 0.0091270
inclination: 98.2568°
perigee height: 534 km
apogee height: 662 km
right ascension of ascending node: 27.4985°
argument of perigee: 254.3825°
revolutions per day: 14.89879755
mean anomaly at epoch: 167.1157°
orbit number at epoch: 50567

The dashed part of the orbit path shows where the satellite is in the earth's shadow,  

DLR